CFG6LA EDDF-GCTS

Flight info

Callsign CFG6LA
Flight time 4h 16m
Altitude 31000
Route SOBRA2L/18 SOBRA Y180 DIK UN857 TOLVU DCT RAPOR DCT ESTOC/N0456F330 UT300 PON UN872 ERIGA DCT FUJTI DCT BAKUP DCT BATAX DCT BABEX DCT EMPAD/N0451F350 DCT BEXAL UN866 KONBA
Aircraft A321/M-SDE2E3FGHIJ1RWXYZ/LB1

Departure

Time 2026-04-13 13:29
Airport Frankfurt Main Airport (EDDF)

Arrival

Time 2026-04-13 17:46
Airport Tenerife Sur Airport (GCTS)
Time Latitude Longitude Altitude Speed Heading
2026-04-13 12:40 50.04909 8.58867 363 ft 0 kts 160°
2026-04-13 13:11 50.04916 8.58863 362 ft 4 kts 160°
2026-04-13 13:12 50.04941 8.58848 362 ft 3 kts 159°
2026-04-13 13:12 50.04964 8.58842 365 ft 4 kts 214°
2026-04-13 13:12 50.04975 8.58866 360 ft 2 kts 250°
2026-04-13 13:12 50.04982 8.58896 360 ft 1 kts 250°
2026-04-13 13:17 50.04981 8.58893 360 ft 1 kts 250°
2026-04-13 13:18 50.04976 8.58868 360 ft 4 kts 250°
2026-04-13 13:18 50.04965 8.58822 362 ft 5 kts 250°
2026-04-13 13:18 50.04947 8.58750 360 ft 9 kts 249°
2026-04-13 13:18 50.04924 8.58650 362 ft 11 kts 250°
2026-04-13 13:19 50.04895 8.58529 361 ft 12 kts 250°
2026-04-13 13:19 50.04867 8.58413 362 ft 11 kts 250°
2026-04-13 13:19 50.04842 8.58307 363 ft 12 kts 249°
2026-04-13 13:19 50.04808 8.58164 362 ft 15 kts 250°
2026-04-13 13:20 50.04775 8.58028 358 ft 10 kts 250°
2026-04-13 13:20 50.04736 8.57961 363 ft 8 kts 198°
2026-04-13 13:20 50.04671 8.57982 362 ft 10 kts 160°
2026-04-13 13:20 50.04616 8.58013 360 ft 6 kts 160°
2026-04-13 13:21 50.04573 8.58028 367 ft 7 kts 181°
2026-04-13 13:21 50.04536 8.57983 365 ft 9 kts 239°
2026-04-13 13:21 50.04502 8.57850 365 ft 18 kts 250°
2026-04-13 13:21 50.04450 8.57632 370 ft 23 kts 249°
2026-04-13 13:22 50.04394 8.57397 366 ft 23 kts 250°
2026-04-13 13:22 50.04340 8.57170 363 ft 21 kts 250°
2026-04-13 13:22 50.04290 8.56961 360 ft 21 kts 249°
2026-04-13 13:22 50.04242 8.56760 363 ft 20 kts 250°
2026-04-13 13:23 50.04193 8.56556 361 ft 21 kts 250°
2026-04-13 13:23 50.04136 8.56316 355 ft 24 kts 249°
2026-04-13 13:23 50.04078 8.56076 355 ft 23 kts 250°
2026-04-13 13:23 50.04023 8.55846 358 ft 22 kts 249°
2026-04-13 13:24 50.03970 8.55625 351 ft 21 kts 250°
2026-04-13 13:24 50.03921 8.55419 351 ft 19 kts 249°
2026-04-13 13:24 50.03876 8.55229 358 ft 18 kts 249°
2026-04-13 13:24 50.03830 8.55035 354 ft 22 kts 250°
2026-04-13 13:25 50.03773 8.54798 352 ft 24 kts 249°
2026-04-13 13:25 50.03717 8.54564 350 ft 23 kts 250°
2026-04-13 13:25 50.03609 8.54111 348 ft 21 kts 250°
2026-04-13 13:26 50.03559 8.53901 339 ft 20 kts 249°
2026-04-13 13:26 50.03511 8.53701 337 ft 19 kts 250°
2026-04-13 13:26 50.03465 8.53509 336 ft 18 kts 250°
2026-04-13 13:26 50.03422 8.53329 335 ft 17 kts 250°
2026-04-13 13:27 50.03381 8.53158 336 ft 17 kts 249°
2026-04-13 13:27 50.03341 8.52993 333 ft 16 kts 250°
2026-04-13 13:27 50.03304 8.52836 330 ft 15 kts 249°
2026-04-13 13:27 50.03266 8.52693 332 ft 14 kts 240°
2026-04-13 13:28 50.03196 8.52607 334 ft 15 kts 199°
2026-04-13 13:28 50.03028 8.52597 331 ft 48 kts 180°
2026-04-13 13:28 50.02474 8.52602 335 ft 111 kts 179°
2026-04-13 13:28 50.01527 8.52613 333 ft 159 kts 179°
2026-04-13 13:29 50.00289 8.52627 410 ft 189 kts 179°
2026-04-13 13:29 49.99017 8.52669 1134 ft 180 kts 179°
2026-04-13 13:29 49.97724 8.52761 1389 ft 195 kts 177°
2026-04-13 13:29 49.96316 8.52871 1557 ft 209 kts 177°
2026-04-13 13:30 49.94810 8.52981 1737 ft 224 kts 177°
2026-04-13 13:30 49.93230 8.53091 2004 ft 230 kts 177°
2026-04-13 13:30 49.91618 8.53200 2541 ft 232 kts 177°
2026-04-13 13:30 49.90002 8.53308 3117 ft 233 kts 177°
2026-04-13 13:31 49.88384 8.53417 3720 ft 232 kts 178°
2026-04-13 13:31 49.86782 8.53169 4263 ft 234 kts 197°
2026-04-13 13:31 49.85193 8.52312 4479 ft 253 kts 200°
2026-04-13 13:31 49.83525 8.51368 4985 ft 261 kts 200°
2026-04-13 13:32 49.81809 8.50388 5669 ft 265 kts 200°
2026-04-13 13:32 49.80070 8.49397 6372 ft 267 kts 200°
2026-04-13 13:32 49.78323 8.48379 7002 ft 270 kts 204°
2026-04-13 13:32 49.76820 8.46649 7619 ft 274 kts 230°
2026-04-13 13:33 49.75967 8.44014 8242 ft 280 kts 256°
2026-04-13 13:33 49.75978 8.40988 8847 ft 288 kts 280°
2026-04-13 13:33 49.76470 8.37962 9452 ft 291 kts 281°
2026-04-13 13:33 49.76976 8.34908 10050 ft 295 kts 281°
2026-04-13 13:34 49.77492 8.31744 10268 ft 314 kts 281°
2026-04-13 13:34 49.78035 8.28364 10393 ft 333 kts 281°
2026-04-13 13:34 49.78605 8.24799 10519 ft 351 kts 281°
2026-04-13 13:34 49.79206 8.21040 10682 ft 367 kts 281°
2026-04-13 13:35 49.79818 8.17223 11146 ft 373 kts 281°
2026-04-13 13:35 49.80447 8.13306 11766 ft 375 kts 281°
2026-04-13 13:35 49.81078 8.09378 12370 ft 377 kts 281°
2026-04-13 13:35 49.81711 8.05426 12954 ft 380 kts 281°
2026-04-13 13:36 49.82346 8.01436 13528 ft 382 kts 282°
2026-04-13 13:36 49.82980 7.97427 14043 ft 385 kts 281°
2026-04-13 13:36 49.83615 7.93382 14506 ft 388 kts 281°
2026-04-13 13:36 49.84253 7.89310 14947 ft 391 kts 281°
2026-04-13 13:37 49.84893 7.85201 15381 ft 394 kts 281°
2026-04-13 13:37 49.85536 7.81062 15826 ft 397 kts 281°
2026-04-13 13:37 49.86182 7.76889 16270 ft 400 kts 281°
2026-04-13 13:37 49.86840 7.72686 16716 ft 403 kts 281°
2026-04-13 13:38 49.87498 7.68509 17211 ft 406 kts 280°
2026-04-13 13:38 49.88168 7.64235 17680 ft 409 kts 280°
2026-04-13 13:38 49.88838 7.59922 18129 ft 412 kts 280°
2026-04-13 13:38 49.89508 7.55587 18522 ft 415 kts 280°
2026-04-13 13:39 49.90179 7.51221 18894 ft 417 kts 279°
2026-04-13 13:39 49.90853 7.46828 19264 ft 419 kts 279°
2026-04-13 13:39 49.91524 7.42424 19633 ft 421 kts 279°
2026-04-13 13:39 49.92190 7.38040 20006 ft 423 kts 279°
2026-04-13 13:40 49.92868 7.33582 20375 ft 425 kts 279°
2026-04-13 13:40 49.93548 7.29102 20738 ft 427 kts 279°
2026-04-13 13:40 49.94228 7.24608 21132 ft 429 kts 278°
2026-04-13 13:40 49.94911 7.20086 21499 ft 430 kts 278°
2026-04-13 13:41 49.95595 7.15548 21877 ft 432 kts 278°
2026-04-13 13:41 49.96278 7.10995 22239 ft 434 kts 278°
2026-04-13 13:41 49.96962 7.06417 22589 ft 436 kts 278°
2026-04-13 13:41 49.97645 7.01821 22924 ft 438 kts 278°
2026-04-13 13:42 49.98326 6.97203 23258 ft 439 kts 278°
2026-04-13 13:42 49.98966 6.92557 23590 ft 438 kts 274°
2026-04-13 13:42 49.99225 6.87868 23885 ft 434 kts 265°
2026-04-13 13:42 49.99113 6.83195 24191 ft 434 kts 262°
2026-04-13 13:43 49.98970 6.78557 24461 ft 436 kts 262°
2026-04-13 13:43 49.98829 6.73834 24785 ft 438 kts 262°
2026-04-13 13:43 49.98689 6.69098 25118 ft 440 kts 262°
2026-04-13 13:43 49.98545 6.64336 25458 ft 442 kts 262°
2026-04-13 13:44 49.98349 6.59573 25792 ft 441 kts 258°
2026-04-13 13:44 49.97754 6.54907 26110 ft 438 kts 250°
2026-04-13 13:44 49.96724 6.50482 26365 ft 435 kts 242°
2026-04-13 13:44 49.95510 6.46175 26619 ft 436 kts 242°
2026-04-13 13:45 49.94294 6.41850 26875 ft 438 kts 242°
2026-04-13 13:45 49.93077 6.37515 27148 ft 439 kts 242°
2026-04-13 13:45 49.91859 6.33184 27589 ft 436 kts 242°
2026-04-13 13:45 49.90646 6.28878 27979 ft 434 kts 242°
2026-04-13 13:46 49.89423 6.24607 28364 ft 433 kts 241°
2026-04-13 13:46 49.88186 6.20363 28713 ft 432 kts 242°
2026-04-13 13:46 49.86971 6.16107 29086 ft 431 kts 242°
2026-04-13 13:46 49.85610 6.11991 29436 ft 426 kts 234°
2026-04-13 13:47 49.83983 6.08268 29774 ft 423 kts 231°
2026-04-13 13:47 49.82290 6.04553 30094 ft 422 kts 231°
2026-04-13 13:47 49.80588 6.00861 30376 ft 421 kts 231°
2026-04-13 13:47 49.78883 5.97176 30640 ft 421 kts 231°
2026-04-13 13:48 49.77176 5.93490 30921 ft 420 kts 231°
2026-04-13 13:48 49.75480 5.89812 31205 ft 420 kts 232°
2026-04-13 13:48 49.74004 5.85891 31519 ft 424 kts 240°
2026-04-13 13:48 49.72917 5.81643 31826 ft 426 kts 245°
2026-04-13 13:49 49.71924 5.77326 32111 ft 425 kts 245°
2026-04-13 13:49 49.70929 5.73018 32366 ft 425 kts 245°
2026-04-13 13:49 49.69936 5.68723 32633 ft 424 kts 245°
2026-04-13 13:49 49.68941 5.64434 32878 ft 424 kts 245°
2026-04-13 13:50 49.67940 5.60148 32966 ft 424 kts 245°
2026-04-13 13:50 49.65944 5.51645 32957 ft 423 kts 245°
2026-04-13 13:51 49.63934 5.43109 32959 ft 423 kts 245°
2026-04-13 13:51 49.61930 5.34574 32954 ft 423 kts 246°
2026-04-13 13:52 49.60061 5.25944 32967 ft 425 kts 247°
2026-04-13 13:52 49.58506 5.17197 32962 ft 428 kts 252°
2026-04-13 13:53 49.57198 5.08259 32962 ft 427 kts 252°
2026-04-13 13:53 49.55839 4.99347 32963 ft 427 kts 251°
2026-04-13 13:54 49.54463 4.90450 32997 ft 427 kts 251°
2026-04-13 13:54 49.53091 4.81560 32993 ft 426 kts 251°
2026-04-13 13:55 49.51958 4.74187 32989 ft 426 kts 251°
2026-04-13 13:55 49.50587 4.65316 32989 ft 426 kts 251°
2026-04-13 13:56 49.49204 4.56448 32983 ft 425 kts 251°
2026-04-13 13:56 49.47816 4.47610 32978 ft 425 kts 251°
2026-04-13 13:57 49.46425 4.38777 33000 ft 425 kts 251°
2026-04-13 13:57 49.45033 4.30011 32990 ft 425 kts 251°
2026-04-13 13:58 49.43623 4.21193 32981 ft 425 kts 251°
2026-04-13 13:58 49.42213 4.12376 32979 ft 425 kts 251°
2026-04-13 13:59 49.40799 4.03568 32978 ft 425 kts 251°
2026-04-13 13:59 49.39368 3.94769 32977 ft 425 kts 250°
2026-04-13 14:00 49.37940 3.85978 32976 ft 425 kts 250°
2026-04-13 14:00 49.36495 3.77184 32978 ft 425 kts 250°
2026-04-13 14:01 49.35050 3.68399 32980 ft 424 kts 250°
2026-04-13 14:01 49.33601 3.59618 32979 ft 425 kts 250°
2026-04-13 14:02 49.32150 3.50909 33010 ft 425 kts 250°
2026-04-13 14:02 49.30684 3.42144 32997 ft 425 kts 250°
2026-04-13 14:03 49.29215 3.33381 32984 ft 425 kts 250°
2026-04-13 14:03 49.27742 3.24620 32976 ft 424 kts 250°
2026-04-13 14:04 49.26257 3.15866 32973 ft 425 kts 250°
2026-04-13 14:04 49.24761 3.07116 33000 ft 425 kts 250°
2026-04-13 14:05 49.23261 2.98377 33002 ft 424 kts 250°
2026-04-13 14:05 49.21766 2.89654 32996 ft 424 kts 250°
2026-04-13 14:06 49.20254 2.80943 32994 ft 423 kts 250°
2026-04-13 14:06 49.18750 2.72292 32995 ft 423 kts 250°
2026-04-13 14:07 49.17226 2.63599 33027 ft 423 kts 251°
2026-04-13 14:07 49.15701 2.54914 33002 ft 424 kts 251°
2026-04-13 14:08 49.14162 2.46214 32988 ft 424 kts 251°
2026-04-13 14:08 49.12767 2.37450 32989 ft 428 kts 258°
2026-04-13 14:09 49.11951 2.28428 32982 ft 429 kts 257°
2026-04-13 14:09 49.11114 2.19408 33014 ft 429 kts 258°
2026-04-13 14:10 49.10258 2.10394 32998 ft 429 kts 258°
2026-04-13 14:10 49.08969 2.01610 32989 ft 425 kts 246°
2026-04-13 14:11 49.06548 1.93402 32980 ft 424 kts 243°
2026-04-13 14:11 49.04083 1.85224 32973 ft 424 kts 243°
2026-04-13 14:12 49.01623 1.77049 32974 ft 425 kts 243°
2026-04-13 14:12 48.99141 1.68866 32987 ft 426 kts 245°
2026-04-13 14:13 48.96647 1.60652 32985 ft 428 kts 245°
2026-04-13 14:13 48.94152 1.52474 32994 ft 429 kts 245°
2026-04-13 14:14 48.90361 1.40108 33001 ft 430 kts 245°
2026-04-13 14:14 48.87826 1.31863 33006 ft 431 kts 245°
2026-04-13 14:15 48.85278 1.23606 33002 ft 432 kts 247°
2026-04-13 14:15 48.82715 1.15336 33001 ft 433 kts 246°
2026-04-13 14:16 48.80137 1.07055 32998 ft 434 kts 246°
2026-04-13 14:16 48.77549 0.98773 32999 ft 434 kts 246°
2026-04-13 14:17 48.74973 0.90541 32993 ft 435 kts 246°
2026-04-13 14:17 48.71923 0.82599 32987 ft 437 kts 242°
2026-04-13 14:18 48.68739 0.74753 32989 ft 438 kts 242°
2026-04-13 14:18 48.65552 0.66891 32991 ft 438 kts 242°
2026-04-13 14:19 48.62354 0.59032 32982 ft 439 kts 242°
2026-04-13 14:19 48.59165 0.51206 32987 ft 440 kts 242°
2026-04-13 14:20 48.55944 0.43350 33005 ft 440 kts 242°
2026-04-13 14:20 48.52706 0.35484 33008 ft 440 kts 243°
2026-04-13 14:21 48.49479 0.27650 33013 ft 440 kts 243°
2026-04-13 14:21 48.46257 0.19824 33016 ft 439 kts 243°
2026-04-13 14:22 48.43042 0.12053 33002 ft 439 kts 243°
2026-04-13 14:22 48.39804 0.04254 33005 ft 440 kts 243°
2026-04-13 14:23 48.36556 -0.03539 33012 ft 439 kts 243°
2026-04-13 14:23 48.33068 -0.11121 33031 ft 442 kts 239°
2026-04-13 14:24 48.29323 -0.18458 33034 ft 442 kts 238°
2026-04-13 14:24 48.25568 -0.25769 33036 ft 441 kts 239°
2026-04-13 14:25 48.21842 -0.33090 33006 ft 441 kts 239°
2026-04-13 14:25 48.18122 -0.40384 33010 ft 441 kts 239°
2026-04-13 14:26 48.14390 -0.47669 33013 ft 441 kts 239°
2026-04-13 14:26 48.10655 -0.54944 33017 ft 441 kts 239°
2026-04-13 14:27 48.06918 -0.62206 33017 ft 440 kts 239°
2026-04-13 14:27 48.03199 -0.69411 33019 ft 440 kts 238°
2026-04-13 14:28 47.99448 -0.76650 33002 ft 441 kts 239°
2026-04-13 14:28 47.95690 -0.83891 33008 ft 441 kts 238°
2026-04-13 14:29 47.91925 -0.91117 33009 ft 441 kts 239°
2026-04-13 14:29 47.88163 -0.98328 33021 ft 440 kts 238°
2026-04-13 14:30 47.84394 -1.05524 33024 ft 440 kts 238°
2026-04-13 14:30 47.80652 -1.12657 33026 ft 440 kts 238°
2026-04-13 14:31 47.76880 -1.19837 33005 ft 440 kts 238°
2026-04-13 14:31 47.73098 -1.27017 32995 ft 440 kts 238°
2026-04-13 14:32 47.69308 -1.34170 33010 ft 440 kts 238°
2026-04-13 14:32 47.65547 -1.41259 33018 ft 440 kts 238°
2026-04-13 14:33 47.61765 -1.48380 33023 ft 439 kts 238°
2026-04-13 14:33 47.57901 -1.55436 33006 ft 441 kts 236°
2026-04-13 14:34 47.53781 -1.62209 33013 ft 443 kts 234°
2026-04-13 14:34 47.49579 -1.68909 33002 ft 443 kts 233°
2026-04-13 14:35 47.45441 -1.75593 33016 ft 443 kts 234°
2026-04-13 14:35 47.41325 -1.82350 33030 ft 442 kts 234°
2026-04-13 14:36 47.37206 -1.89102 33038 ft 442 kts 234°
2026-04-13 14:36 47.32487 -1.95066 33027 ft 456 kts 217°
2026-04-13 14:37 47.27043 -1.99916 33045 ft 457 kts 217°
2026-04-13 14:37 47.21605 -2.04763 33039 ft 457 kts 217°
2026-04-13 14:38 47.16196 -2.09592 33016 ft 457 kts 217°
2026-04-13 14:38 47.10756 -2.14446 33028 ft 457 kts 217°
2026-04-13 14:39 47.05315 -2.19281 33038 ft 457 kts 217°
2026-04-13 14:39 46.99864 -2.24102 33052 ft 458 kts 217°
2026-04-13 14:40 46.94407 -2.28910 33041 ft 458 kts 217°
2026-04-13 14:40 46.88945 -2.33710 33052 ft 458 kts 217°
2026-04-13 14:41 46.83491 -2.38504 33054 ft 458 kts 217°
2026-04-13 14:41 46.78033 -2.43298 33059 ft 458 kts 217°
2026-04-13 14:42 46.72568 -2.48088 33048 ft 458 kts 216°
2026-04-13 14:42 46.67100 -2.52865 33061 ft 458 kts 216°
2026-04-13 14:43 46.61664 -2.57603 33073 ft 458 kts 216°
2026-04-13 14:43 46.56197 -2.62359 33073 ft 458 kts 216°
2026-04-13 14:44 46.50724 -2.67100 33060 ft 458 kts 216°
2026-04-13 14:44 46.46172 -2.71038 33065 ft 458 kts 216°
2026-04-13 14:45 46.40688 -2.75776 33065 ft 458 kts 216°
2026-04-13 14:45 46.35197 -2.80500 33056 ft 458 kts 216°
2026-04-13 14:46 46.29716 -2.85214 33060 ft 458 kts 216°
2026-04-13 14:46 46.24233 -2.89923 33067 ft 458 kts 216°
2026-04-13 14:47 46.18775 -2.94684 33074 ft 458 kts 217°
2026-04-13 14:47 46.13357 -2.99423 33077 ft 458 kts 216°
2026-04-13 14:48 46.07898 -3.04165 33062 ft 459 kts 216°
2026-04-13 14:48 46.02425 -3.08904 33068 ft 459 kts 216°
2026-04-13 14:49 45.96941 -3.13628 33069 ft 460 kts 216°
2026-04-13 14:49 45.91445 -3.18361 33060 ft 460 kts 216°
2026-04-13 14:50 45.85950 -3.23080 33083 ft 460 kts 216°
2026-04-13 14:50 45.80456 -3.27779 33092 ft 460 kts 216°
2026-04-13 14:51 45.74973 -3.32482 33092 ft 459 kts 216°
2026-04-13 14:51 45.69515 -3.37135 33079 ft 459 kts 216°
2026-04-13 14:52 45.64020 -3.41809 33080 ft 460 kts 216°
2026-04-13 14:52 45.58523 -3.46490 33082 ft 460 kts 216°
2026-04-13 14:53 45.53021 -3.51155 33070 ft 460 kts 216°
2026-04-13 14:53 45.47509 -3.55804 33070 ft 460 kts 216°
2026-04-13 14:54 45.41998 -3.60448 33079 ft 460 kts 216°
2026-04-13 14:54 45.36483 -3.65096 33090 ft 460 kts 216°
2026-04-13 14:55 45.31014 -3.69701 33076 ft 460 kts 216°
2026-04-13 14:55 45.25498 -3.74319 33083 ft 461 kts 216°
2026-04-13 14:56 45.19962 -3.78939 33092 ft 461 kts 216°
2026-04-13 14:56 45.14424 -3.83554 33098 ft 461 kts 216°
2026-04-13 14:57 45.08890 -3.88158 33078 ft 461 kts 215°
2026-04-13 14:58 45.00621 -3.95024 33097 ft 461 kts 215°
2026-04-13 14:58 44.95080 -3.99612 33098 ft 462 kts 215°
2026-04-13 14:59 44.89532 -4.04184 33086 ft 462 kts 215°
2026-04-13 14:59 44.83979 -4.08752 33095 ft 462 kts 215°
2026-04-13 15:00 44.78422 -4.13320 33096 ft 463 kts 215°
2026-04-13 15:00 44.72858 -4.17885 33100 ft 463 kts 215°
2026-04-13 15:01 44.67296 -4.22435 33103 ft 463 kts 215°
2026-04-13 15:01 44.61722 -4.26987 33107 ft 463 kts 215°
2026-04-13 15:02 44.56153 -4.31526 33109 ft 463 kts 215°
2026-04-13 15:02 44.50611 -4.36027 33097 ft 463 kts 215°
2026-04-13 15:03 44.45028 -4.40553 33098 ft 464 kts 215°
2026-04-13 15:03 44.39438 -4.45078 33099 ft 464 kts 216°
2026-04-13 15:04 44.33910 -4.49737 33104 ft 463 kts 217°
2026-04-13 15:04 44.28454 -4.54429 33100 ft 464 kts 217°
2026-04-13 15:05 44.22946 -4.59124 33086 ft 464 kts 216°
2026-04-13 15:05 44.17416 -4.63779 33106 ft 464 kts 216°
2026-04-13 15:06 44.11883 -4.68402 33099 ft 464 kts 216°
2026-04-13 15:06 44.06353 -4.73031 33097 ft 464 kts 216°
2026-04-13 15:07 44.00825 -4.77663 33104 ft 464 kts 216°
2026-04-13 15:07 43.95289 -4.82293 33108 ft 464 kts 216°
2026-04-13 15:08 43.89750 -4.86902 33099 ft 464 kts 216°
2026-04-13 15:08 43.84214 -4.91505 33098 ft 464 kts 216°
2026-04-13 15:09 43.78674 -4.96100 33082 ft 464 kts 216°
2026-04-13 15:09 43.73125 -5.00693 33090 ft 465 kts 216°
2026-04-13 15:10 43.67573 -5.05278 33086 ft 465 kts 216°
2026-04-13 15:10 43.62045 -5.09838 33095 ft 466 kts 216°
2026-04-13 15:11 43.56478 -5.14419 33097 ft 466 kts 216°
2026-04-13 15:11 43.50902 -5.18988 33095 ft 466 kts 216°
2026-04-13 15:12 43.45325 -5.23559 33097 ft 467 kts 216°
2026-04-13 15:12 43.39742 -5.28122 33099 ft 467 kts 216°
2026-04-13 15:13 43.34147 -5.32671 33106 ft 468 kts 216°
2026-04-13 15:13 43.29454 -5.36482 33079 ft 468 kts 217°
2026-04-13 15:14 43.22936 -5.41769 33088 ft 469 kts 217°
2026-04-13 15:14 43.17308 -5.46329 33087 ft 470 kts 217°
2026-04-13 15:15 43.11674 -5.50883 33091 ft 470 kts 217°
2026-04-13 15:15 43.06035 -5.55428 33084 ft 471 kts 217°
2026-04-13 15:16 43.00386 -5.59969 33084 ft 471 kts 217°
2026-04-13 15:16 42.94771 -5.64476 33092 ft 471 kts 216°
2026-04-13 15:17 42.89122 -5.69002 33093 ft 471 kts 217°
2026-04-13 15:17 42.83457 -5.73529 33056 ft 472 kts 217°
2026-04-13 15:18 42.77787 -5.78062 33064 ft 473 kts 217°
2026-04-13 15:18 42.72096 -5.82597 33069 ft 474 kts 217°
2026-04-13 15:19 42.66391 -5.87125 33075 ft 475 kts 217°
2026-04-13 15:19 42.60682 -5.91644 33079 ft 475 kts 217°
2026-04-13 15:20 42.54962 -5.96163 33092 ft 475 kts 217°
2026-04-13 15:20 42.49278 -6.00650 33101 ft 476 kts 217°
2026-04-13 15:21 42.43555 -6.05154 33098 ft 476 kts 217°
2026-04-13 15:21 42.37822 -6.09668 33077 ft 477 kts 218°
2026-04-13 15:22 42.32071 -6.14180 33084 ft 478 kts 217°
2026-04-13 15:22 42.26313 -6.18687 33094 ft 479 kts 217°
2026-04-13 15:23 42.20534 -6.23190 33085 ft 480 kts 218°
2026-04-13 15:23 42.14781 -6.27672 33097 ft 481 kts 218°
2026-04-13 15:24 42.08971 -6.32192 33096 ft 482 kts 218°
2026-04-13 15:24 42.03155 -6.36708 33102 ft 483 kts 217°
2026-04-13 15:25 41.97327 -6.41213 33104 ft 483 kts 217°
2026-04-13 15:25 41.91490 -6.45720 33111 ft 484 kts 217°
2026-04-13 15:26 41.85679 -6.50202 33092 ft 485 kts 218°
2026-04-13 15:26 41.79818 -6.54723 33095 ft 486 kts 218°
2026-04-13 15:27 41.73928 -6.59239 33103 ft 488 kts 218°
2026-04-13 15:27 41.68017 -6.63725 33129 ft 490 kts 217°
2026-04-13 15:28 41.61988 -6.68022 33139 ft 492 kts 216°
2026-04-13 15:28 41.55944 -6.72187 33134 ft 492 kts 216°
2026-04-13 15:29 41.49867 -6.76411 33130 ft 492 kts 216°
2026-04-13 15:29 41.43802 -6.80678 33134 ft 493 kts 216°
2026-04-13 15:30 41.37732 -6.84952 33110 ft 493 kts 217°
2026-04-13 15:30 41.31643 -6.89220 33142 ft 497 kts 216°
2026-04-13 15:31 41.25505 -6.93502 33139 ft 498 kts 216°
2026-04-13 15:31 41.19355 -6.97763 33142 ft 499 kts 216°
2026-04-13 15:32 41.13201 -7.02028 33148 ft 499 kts 216°
2026-04-13 15:32 41.07049 -7.06289 33147 ft 499 kts 217°
2026-04-13 15:33 41.01256 -7.11023 33144 ft 487 kts 225°
2026-04-13 15:33 40.95764 -7.16284 33158 ft 487 kts 225°
2026-04-13 15:34 40.87511 -7.24141 33163 ft 488 kts 225°
2026-04-13 15:34 40.82906 -7.28514 33172 ft 491 kts 225°
2026-04-13 15:35 40.76452 -7.34621 33186 ft 491 kts 225°
2026-04-13 15:35 40.71810 -7.39010 33187 ft 490 kts 225°
2026-04-13 15:36 40.66262 -7.44248 33174 ft 491 kts 225°
2026-04-13 15:36 40.60697 -7.49486 33177 ft 491 kts 225°
2026-04-13 15:37 40.55133 -7.54708 33175 ft 491 kts 225°
2026-04-13 15:37 40.49603 -7.59901 33179 ft 492 kts 225°
2026-04-13 15:38 40.44035 -7.65116 33163 ft 492 kts 225°
2026-04-13 15:38 40.38460 -7.70320 33166 ft 492 kts 225°
2026-04-13 15:39 40.32876 -7.75518 33175 ft 492 kts 225°
2026-04-13 15:39 40.27290 -7.80711 33173 ft 492 kts 225°
2026-04-13 15:40 40.21732 -7.85870 33182 ft 493 kts 225°
2026-04-13 15:40 40.16136 -7.91049 33169 ft 492 kts 225°
2026-04-13 15:41 40.10533 -7.96237 33182 ft 494 kts 225°
2026-04-13 15:41 40.04913 -8.01426 33184 ft 494 kts 225°
2026-04-13 15:42 39.99288 -8.06601 33191 ft 495 kts 225°
2026-04-13 15:42 39.93656 -8.11779 33180 ft 495 kts 225°
2026-04-13 15:43 39.88044 -8.16920 33184 ft 496 kts 224°
2026-04-13 15:43 39.82385 -8.22092 33192 ft 497 kts 224°
2026-04-13 15:44 39.76713 -8.27264 33195 ft 497 kts 224°
2026-04-13 15:44 39.71041 -8.32432 33183 ft 498 kts 224°
2026-04-13 15:45 39.65376 -8.37588 33201 ft 496 kts 224°
2026-04-13 15:45 39.59763 -8.42683 33227 ft 495 kts 224°
2026-04-13 15:46 39.54109 -8.47802 33224 ft 495 kts 224°
2026-04-13 15:46 39.48467 -8.52911 33200 ft 494 kts 224°
2026-04-13 15:47 39.42823 -8.57996 33212 ft 494 kts 224°
2026-04-13 15:47 39.37178 -8.63069 33212 ft 494 kts 224°
2026-04-13 15:48 39.31578 -8.68103 33218 ft 493 kts 224°
2026-04-13 15:48 39.25941 -8.73154 33202 ft 493 kts 224°
2026-04-13 15:49 39.20301 -8.78194 33189 ft 493 kts 224°
2026-04-13 15:49 39.14660 -8.83235 33211 ft 493 kts 224°
2026-04-13 15:50 39.09019 -8.88260 33224 ft 493 kts 224°
2026-04-13 15:50 39.03377 -8.93280 33231 ft 493 kts 224°
2026-04-13 15:51 38.97734 -8.98294 33227 ft 493 kts 223°
2026-04-13 15:51 38.92087 -9.03293 33231 ft 493 kts 223°
2026-04-13 15:52 38.86422 -9.08262 33234 ft 493 kts 223°
2026-04-13 15:52 38.80747 -9.13119 33229 ft 494 kts 222°
2026-04-13 15:53 38.75006 -9.17978 33221 ft 494 kts 221°
2026-04-13 15:53 38.69276 -9.22837 33230 ft 494 kts 222°
2026-04-13 15:54 38.63549 -9.27716 33471 ft 496 kts 222°
2026-04-13 15:54 38.60682 -9.30159 33747 ft 496 kts 222°
2026-04-13 15:54 38.57814 -9.32597 34029 ft 495 kts 222°
2026-04-13 15:55 38.54946 -9.35026 34298 ft 495 kts 222°
2026-04-13 15:55 38.52070 -9.37453 34541 ft 494 kts 222°
2026-04-13 15:55 38.49244 -9.39836 34786 ft 493 kts 221°
2026-04-13 15:55 38.46387 -9.42245 35035 ft 492 kts 221°
2026-04-13 15:56 38.43532 -9.44655 35223 ft 491 kts 221°
2026-04-13 15:56 38.40689 -9.47058 35219 ft 490 kts 221°
2026-04-13 15:56 38.34998 -9.51865 35244 ft 491 kts 221°
2026-04-13 15:57 38.29301 -9.56655 35247 ft 491 kts 221°
2026-04-13 15:57 38.23595 -9.61446 35244 ft 491 kts 221°
2026-04-13 15:58 38.17879 -9.66232 35246 ft 492 kts 221°
2026-04-13 15:58 38.12158 -9.71008 35251 ft 492 kts 221°
2026-04-13 15:59 38.06475 -9.75754 35259 ft 492 kts 221°
2026-04-13 15:59 38.00749 -9.80528 35254 ft 492 kts 221°
2026-04-13 16:00 37.95018 -9.85283 35232 ft 492 kts 221°
2026-04-13 16:00 37.89294 -9.90024 35259 ft 491 kts 221°
2026-04-13 16:01 37.83569 -9.94777 35267 ft 491 kts 221°
2026-04-13 16:01 37.77849 -9.99507 35270 ft 491 kts 221°
2026-04-13 16:02 37.72123 -10.04224 35263 ft 491 kts 220°
2026-04-13 16:02 37.66440 -10.08900 35267 ft 491 kts 220°
2026-04-13 16:03 37.60718 -10.13604 35272 ft 491 kts 220°
2026-04-13 16:03 37.54994 -10.18302 35273 ft 491 kts 220°
2026-04-13 16:04 37.49265 -10.23000 35232 ft 491 kts 220°
2026-04-13 16:04 37.43532 -10.27687 35248 ft 491 kts 220°
2026-04-13 16:05 37.37796 -10.32362 35261 ft 491 kts 220°
2026-04-13 16:05 37.32059 -10.37029 35267 ft 491 kts 220°
2026-04-13 16:06 37.26352 -10.41663 35271 ft 491 kts 220°
2026-04-13 16:06 37.20613 -10.46325 35274 ft 491 kts 220°
2026-04-13 16:07 37.14867 -10.50981 35278 ft 491 kts 220°
2026-04-13 16:07 37.09117 -10.55620 35280 ft 492 kts 220°
2026-04-13 16:08 37.03365 -10.60251 35256 ft 491 kts 219°
2026-04-13 16:08 36.97620 -10.64879 35268 ft 491 kts 219°
2026-04-13 16:09 36.91877 -10.69493 35282 ft 490 kts 219°
2026-04-13 16:09 36.86135 -10.74097 35286 ft 490 kts 219°
2026-04-13 16:10 36.80437 -10.78666 35290 ft 490 kts 219°
2026-04-13 16:10 36.74698 -10.83258 35290 ft 490 kts 219°
2026-04-13 16:11 36.68954 -10.87849 35285 ft 490 kts 219°
2026-04-13 16:11 36.63210 -10.92417 35289 ft 490 kts 219°
2026-04-13 16:12 36.57497 -10.96941 35272 ft 489 kts 219°
2026-04-13 16:12 36.51757 -11.01495 35286 ft 489 kts 219°
2026-04-13 16:13 36.46026 -11.06052 35289 ft 488 kts 219°
2026-04-13 16:13 36.40297 -11.10596 35291 ft 488 kts 219°
2026-04-13 16:14 36.34568 -11.15114 35299 ft 488 kts 219°
2026-04-13 16:14 36.28828 -11.19630 35298 ft 488 kts 219°
2026-04-13 16:15 36.23092 -11.24138 35302 ft 488 kts 219°
2026-04-13 16:15 36.17361 -11.28642 35284 ft 488 kts 219°
2026-04-13 16:16 36.11661 -11.33114 35264 ft 488 kts 218°
2026-04-13 16:16 36.05925 -11.37606 35279 ft 488 kts 218°
2026-04-13 16:17 36.00184 -11.42093 35286 ft 488 kts 218°
2026-04-13 16:17 35.94468 -11.46611 35282 ft 486 kts 220°
2026-04-13 16:18 35.88953 -11.51417 35293 ft 484 kts 223°
2026-04-13 16:18 35.83522 -11.56348 35299 ft 484 kts 223°
2026-04-13 16:19 35.78101 -11.61192 35299 ft 485 kts 222°
2026-04-13 16:19 35.72593 -11.65996 35301 ft 485 kts 221°
2026-04-13 16:20 35.67076 -11.70779 35296 ft 485 kts 221°
2026-04-13 16:20 35.61567 -11.75563 35304 ft 484 kts 221°
2026-04-13 16:21 35.56067 -11.80347 35309 ft 484 kts 221°
2026-04-13 16:21 35.50570 -11.85132 35311 ft 484 kts 221°
2026-04-13 16:22 35.45074 -11.89905 35314 ft 484 kts 221°
2026-04-13 16:23 35.36869 -11.97013 35312 ft 484 kts 221°
2026-04-13 16:23 35.31359 -12.01771 35311 ft 484 kts 221°
2026-04-13 16:24 35.25858 -12.06516 35294 ft 484 kts 221°
2026-04-13 16:24 35.20355 -12.11251 35300 ft 484 kts 221°
2026-04-13 16:25 35.14853 -12.15980 35304 ft 483 kts 221°
2026-04-13 16:25 35.09344 -12.20708 35298 ft 483 kts 221°
2026-04-13 16:26 35.04768 -12.24632 35316 ft 483 kts 221°
2026-04-13 16:26 34.98336 -12.30131 35315 ft 483 kts 220°
2026-04-13 16:27 34.92866 -12.34792 35318 ft 483 kts 220°
2026-04-13 16:27 34.87360 -12.39486 35313 ft 483 kts 220°
2026-04-13 16:28 34.82785 -12.43375 35293 ft 482 kts 220°
2026-04-13 16:28 34.77279 -12.48055 35302 ft 482 kts 220°
2026-04-13 16:29 34.71772 -12.52724 35309 ft 482 kts 220°
2026-04-13 16:29 34.66267 -12.57383 35312 ft 482 kts 220°
2026-04-13 16:30 34.60795 -12.62006 35317 ft 482 kts 220°
2026-04-13 16:30 34.55300 -12.66657 35315 ft 482 kts 220°
2026-04-13 16:31 34.49803 -12.71298 35316 ft 482 kts 220°
2026-04-13 16:31 34.44295 -12.75926 35317 ft 482 kts 220°
2026-04-13 16:32 34.38787 -12.80548 35306 ft 481 kts 219°
2026-04-13 16:32 34.33296 -12.85159 35317 ft 480 kts 219°
2026-04-13 16:33 34.27828 -12.89723 35314 ft 480 kts 219°
2026-04-13 16:33 34.22330 -12.94326 35317 ft 480 kts 219°
2026-04-13 16:34 34.16868 -12.98946 35321 ft 479 kts 220°
2026-04-13 16:34 34.11399 -13.03564 35318 ft 479 kts 219°
2026-04-13 16:35 34.05930 -13.08163 35319 ft 479 kts 219°
2026-04-13 16:35 34.00456 -13.12757 35308 ft 479 kts 219°
2026-04-13 16:36 33.95007 -13.17331 35309 ft 478 kts 219°
2026-04-13 16:36 33.89529 -13.21914 35319 ft 477 kts 219°
2026-04-13 16:37 33.84108 -13.26446 35325 ft 477 kts 219°
2026-04-13 16:37 33.78660 -13.30995 35322 ft 477 kts 219°
2026-04-13 16:38 33.73199 -13.35532 35316 ft 477 kts 219°
2026-04-13 16:38 33.67744 -13.40062 35314 ft 476 kts 219°
2026-04-13 16:39 33.62288 -13.44590 35316 ft 476 kts 219°
2026-04-13 16:39 33.56840 -13.49109 35315 ft 476 kts 219°
2026-04-13 16:40 33.51397 -13.53630 35302 ft 476 kts 219°
2026-04-13 16:40 33.45949 -13.58127 35311 ft 475 kts 218°
2026-04-13 16:41 33.40497 -13.62617 35316 ft 475 kts 218°
2026-04-13 16:41 33.35086 -13.67066 35315 ft 475 kts 218°
2026-04-13 16:42 33.29640 -13.71542 35317 ft 475 kts 218°
2026-04-13 16:42 33.24203 -13.76013 35312 ft 474 kts 218°
2026-04-13 16:43 33.18762 -13.80484 35316 ft 474 kts 218°
2026-04-13 16:43 33.13320 -13.84943 35302 ft 474 kts 218°
2026-04-13 16:44 33.07866 -13.89375 35304 ft 474 kts 218°
2026-04-13 16:44 33.02411 -13.93783 35318 ft 473 kts 218°
2026-04-13 16:45 32.96956 -13.98190 35313 ft 473 kts 218°
2026-04-13 16:45 32.91553 -14.02566 35313 ft 473 kts 218°
2026-04-13 16:46 32.86102 -14.06959 35297 ft 472 kts 218°
2026-04-13 16:46 32.80662 -14.11341 35305 ft 472 kts 218°
2026-04-13 16:47 32.75225 -14.15715 35307 ft 472 kts 218°
2026-04-13 16:47 32.69784 -14.20090 35307 ft 472 kts 218°
2026-04-13 16:48 32.64346 -14.24449 35299 ft 471 kts 218°
2026-04-13 16:48 32.58915 -14.28800 35306 ft 471 kts 218°
2026-04-13 16:49 32.53514 -14.33124 35309 ft 470 kts 218°
2026-04-13 16:49 32.48085 -14.37459 35312 ft 470 kts 218°
2026-04-13 16:50 32.42655 -14.41790 35307 ft 470 kts 218°
2026-04-13 16:50 32.37226 -14.46114 35306 ft 470 kts 218°
2026-04-13 16:51 32.31836 -14.50403 35304 ft 470 kts 217°
2026-04-13 16:51 32.26403 -14.54714 35298 ft 470 kts 217°
2026-04-13 16:52 32.20974 -14.59011 35285 ft 470 kts 217°
2026-04-13 16:52 32.15550 -14.63306 35299 ft 469 kts 217°
2026-04-13 16:53 32.10122 -14.67592 35308 ft 469 kts 217°
2026-04-13 16:53 32.04743 -14.71848 35305 ft 468 kts 217°
2026-04-13 16:54 31.99332 -14.76116 35299 ft 468 kts 217°
2026-04-13 16:54 31.93912 -14.80377 35300 ft 468 kts 217°
2026-04-13 16:55 31.88492 -14.84643 35295 ft 468 kts 217°
2026-04-13 16:55 31.83073 -14.88896 35294 ft 468 kts 217°
2026-04-13 16:56 31.77649 -14.93138 35294 ft 468 kts 217°
2026-04-13 16:56 31.72233 -14.97385 35287 ft 467 kts 217°
2026-04-13 16:57 31.66853 -15.01588 35298 ft 467 kts 217°
2026-04-13 16:57 31.61444 -15.05804 35301 ft 467 kts 217°
2026-04-13 16:58 31.56034 -15.10017 35297 ft 466 kts 217°
2026-04-13 16:58 31.50623 -15.14226 35298 ft 466 kts 217°
2026-04-13 16:59 31.45209 -15.18428 35291 ft 466 kts 217°
2026-04-13 16:59 31.39802 -15.22627 35287 ft 466 kts 216°
2026-04-13 17:00 31.34393 -15.26823 35283 ft 466 kts 216°
2026-04-13 17:00 31.28954 -15.30970 35284 ft 467 kts 214°
2026-04-13 17:01 31.23296 -15.34738 35283 ft 469 kts 211°
2026-04-13 17:01 31.17547 -15.38251 35285 ft 469 kts 210°
2026-04-13 17:02 31.11783 -15.41804 35278 ft 469 kts 211°
2026-04-13 17:02 31.06063 -15.45445 35280 ft 468 kts 211°
2026-04-13 17:03 31.00347 -15.49104 35280 ft 469 kts 211°
2026-04-13 17:03 30.94619 -15.52746 35282 ft 469 kts 211°
2026-04-13 17:04 30.88888 -15.56376 35274 ft 469 kts 211°
2026-04-13 17:04 30.83188 -15.59977 35270 ft 469 kts 211°
2026-04-13 17:05 30.77455 -15.63600 35266 ft 469 kts 211°
2026-04-13 17:05 30.71721 -15.67228 35279 ft 468 kts 211°
2026-04-13 17:06 30.65985 -15.70840 35274 ft 468 kts 211°
2026-04-13 17:06 30.60258 -15.74437 35277 ft 468 kts 211°
2026-04-13 17:07 30.54530 -15.78040 35270 ft 468 kts 211°
2026-04-13 17:07 30.48844 -15.81616 35269 ft 468 kts 211°
2026-04-13 17:08 30.43110 -15.85199 35270 ft 468 kts 211°
2026-04-13 17:08 30.37379 -15.88779 35267 ft 468 kts 211°
2026-04-13 17:09 30.31652 -15.92366 35271 ft 468 kts 211°
2026-04-13 17:09 30.25927 -15.95953 35268 ft 468 kts 211°
2026-04-13 17:10 30.20194 -15.99535 35265 ft 468 kts 210°
2026-04-13 17:10 30.14486 -16.03074 35258 ft 468 kts 210°
2026-04-13 17:11 30.08751 -16.06627 35252 ft 468 kts 210°
2026-04-13 17:11 30.03014 -16.10188 35255 ft 468 kts 210°
2026-04-13 17:12 29.97281 -16.13737 35260 ft 468 kts 210°
2026-04-13 17:12 29.91541 -16.17296 35251 ft 468 kts 210°
2026-04-13 17:13 29.85804 -16.20856 35253 ft 468 kts 210°
2026-04-13 17:13 29.80104 -16.24385 35254 ft 469 kts 210°
2026-04-13 17:14 29.74348 -16.27930 35255 ft 469 kts 210°
2026-04-13 17:14 29.68586 -16.31474 35254 ft 469 kts 210°
2026-04-13 17:15 29.62832 -16.35019 35245 ft 469 kts 210°
2026-04-13 17:15 29.57340 -16.38979 35245 ft 465 kts 222°
2026-04-13 17:16 29.52380 -16.43682 35253 ft 465 kts 221°
2026-04-13 17:16 29.47377 -16.48396 35253 ft 465 kts 221°
2026-04-13 17:17 29.42377 -16.53103 35250 ft 465 kts 221°
2026-04-13 17:17 29.37369 -16.57811 35254 ft 465 kts 221°
2026-04-13 17:18 29.32370 -16.62506 35248 ft 465 kts 221°
2026-04-13 17:18 29.27397 -16.67181 35249 ft 465 kts 221°
2026-04-13 17:19 29.22392 -16.71874 35241 ft 465 kts 221°
2026-04-13 17:19 29.17377 -16.76564 35240 ft 465 kts 221°
2026-04-13 17:20 29.12361 -16.81246 35246 ft 466 kts 221°
2026-04-13 17:20 29.09849 -16.83591 35116 ft 466 kts 221°
2026-04-13 17:20 29.07334 -16.85938 34873 ft 466 kts 221°
2026-04-13 17:20 29.04810 -16.88292 34178 ft 470 kts 221°
2026-04-13 17:21 29.02261 -16.90672 33165 ft 476 kts 221°
2026-04-13 17:21 29.00558 -16.92263 32567 ft 478 kts 221°
2026-04-13 17:21 28.97117 -16.95475 31313 ft 484 kts 221°
2026-04-13 17:21 28.94491 -16.97914 30297 ft 490 kts 221°
2026-04-13 17:22 28.91827 -17.00386 29156 ft 493 kts 220°
2026-04-13 17:22 28.90025 -17.02057 28452 ft 495 kts 221°
2026-04-13 17:22 28.87408 -17.04476 27893 ft 487 kts 221°
2026-04-13 17:22 28.84752 -17.06937 27160 ft 484 kts 221°
2026-04-13 17:23 28.82181 -17.09318 26482 ft 481 kts 221°
2026-04-13 17:23 28.79596 -17.11714 25796 ft 477 kts 220°
2026-04-13 17:23 28.77025 -17.14094 25123 ft 474 kts 221°
2026-04-13 17:23 28.74472 -17.16454 24468 ft 471 kts 220°
2026-04-13 17:24 28.71933 -17.18799 23799 ft 468 kts 221°
2026-04-13 17:24 28.69410 -17.21133 23080 ft 465 kts 220°
2026-04-13 17:24 28.66917 -17.23439 22486 ft 458 kts 220°
2026-04-13 17:24 28.64462 -17.25707 21898 ft 452 kts 222°
2026-04-13 17:25 28.62033 -17.27950 21323 ft 446 kts 220°
2026-04-13 17:25 28.59642 -17.30160 20774 ft 440 kts 221°
2026-04-13 17:25 28.57278 -17.32338 20251 ft 434 kts 221°
2026-04-13 17:25 28.54951 -17.34479 19748 ft 427 kts 221°
2026-04-13 17:26 28.52657 -17.36586 19248 ft 421 kts 222°
2026-04-13 17:26 28.50322 -17.38571 18767 ft 418 kts 212°
2026-04-13 17:26 28.47629 -17.39781 18253 ft 417 kts 193°
2026-04-13 17:26 28.44759 -17.39955 17737 ft 413 kts 174°
2026-04-13 17:27 28.39688 -17.37380 17037 ft 397 kts 136°
2026-04-13 17:27 28.37963 -17.35019 16912 ft 381 kts 119°
2026-04-13 17:27 28.36639 -17.32480 16783 ft 368 kts 117°
2026-04-13 17:28 28.35363 -17.30014 16637 ft 356 kts 118°
2026-04-13 17:28 28.34127 -17.27622 16444 ft 346 kts 119°
2026-04-13 17:28 28.32913 -17.25275 16067 ft 344 kts 119°
2026-04-13 17:28 28.31704 -17.22948 15561 ft 341 kts 119°
2026-04-13 17:29 28.30502 -17.20639 15010 ft 338 kts 120°
2026-04-13 17:29 28.29306 -17.18341 14398 ft 338 kts 118°
2026-04-13 17:29 28.28112 -17.16045 13859 ft 335 kts 120°
2026-04-13 17:29 28.26934 -17.13783 13295 ft 331 kts 118°
2026-04-13 17:30 28.25749 -17.11572 12810 ft 324 kts 121°
2026-04-13 17:30 28.24507 -17.09456 12279 ft 321 kts 123°
2026-04-13 17:30 28.23232 -17.07390 11719 ft 318 kts 123°
2026-04-13 17:30 28.21969 -17.05383 11253 ft 312 kts 122°
2026-04-13 17:31 28.20711 -17.03387 10775 ft 309 kts 123°
2026-04-13 17:31 28.19478 -17.01413 10375 ft 302 kts 122°
2026-04-13 17:31 28.18304 -16.99520 10250 ft 286 kts 123°
2026-04-13 17:31 28.17072 -16.97801 10147 ft 276 kts 135°
2026-04-13 17:32 28.15522 -16.96570 9884 ft 271 kts 153°
2026-04-13 17:32 28.13777 -16.95767 9567 ft 270 kts 158°
2026-04-13 17:32 28.12036 -16.94995 9223 ft 267 kts 158°
2026-04-13 17:32 28.10315 -16.94232 8882 ft 264 kts 157°
2026-04-13 17:33 28.08600 -16.93470 8397 ft 265 kts 157°
2026-04-13 17:33 28.06914 -16.92718 8027 ft 262 kts 156°
2026-04-13 17:33 28.05225 -16.91965 7678 ft 259 kts 156°
2026-04-13 17:33 28.03515 -16.91379 7329 ft 257 kts 174°
2026-04-13 17:34 28.00408 -16.92940 6860 ft 255 kts 234°
2026-04-13 17:34 27.99606 -16.94725 6761 ft 255 kts 247°
2026-04-13 17:34 27.98911 -16.96566 6629 ft 255 kts 247°
2026-04-13 17:35 27.98220 -16.98415 6502 ft 255 kts 248°
2026-04-13 17:35 27.97527 -17.00266 6375 ft 256 kts 248°
2026-04-13 17:35 27.96830 -17.02121 6181 ft 256 kts 248°
2026-04-13 17:35 27.96127 -17.03952 5909 ft 253 kts 244°
2026-04-13 17:36 27.94987 -17.05418 5614 ft 249 kts 208°
2026-04-13 17:36 27.93339 -17.05799 5320 ft 243 kts 171°
2026-04-13 17:36 27.91730 -17.05275 5035 ft 241 kts 153°
2026-04-13 17:36 27.90328 -17.04275 4732 ft 237 kts 136°
2026-04-13 17:37 27.89299 -17.02888 4433 ft 232 kts 117°
2026-04-13 17:37 27.88779 -17.01190 4240 ft 228 kts 97°
2026-04-13 17:37 27.88845 -16.99423 4088 ft 225 kts 75°
2026-04-13 17:37 27.89397 -16.97779 3940 ft 222 kts 66°
2026-04-13 17:38 27.90002 -16.96169 3795 ft 222 kts 66°
2026-04-13 17:38 27.90609 -16.94550 3639 ft 223 kts 66°
2026-04-13 17:38 27.91211 -16.92941 3490 ft 221 kts 67°
2026-04-13 17:38 27.91810 -16.91342 3340 ft 220 kts 67°
2026-04-13 17:39 27.92409 -16.89743 3178 ft 222 kts 67°
2026-04-13 17:39 27.93005 -16.88157 3035 ft 223 kts 67°
2026-04-13 17:39 27.93608 -16.86549 2876 ft 222 kts 66°
2026-04-13 17:39 27.94316 -16.84996 2737 ft 223 kts 58°
2026-04-13 17:40 27.95141 -16.83507 2573 ft 224 kts 60°
2026-04-13 17:40 27.95814 -16.81928 2422 ft 219 kts 66°
2026-04-13 17:40 27.96375 -16.80365 2263 ft 209 kts 68°
2026-04-13 17:40 27.96891 -16.78887 2167 ft 194 kts 67°
2026-04-13 17:41 27.97378 -16.77496 2105 ft 187 kts 67°
2026-04-13 17:41 27.97852 -16.76140 2104 ft 185 kts 67°
2026-04-13 17:41 27.98326 -16.74788 2107 ft 185 kts 68°
2026-04-13 17:41 27.98798 -16.73437 2109 ft 184 kts 67°
2026-04-13 17:42 27.99264 -16.72105 2108 ft 184 kts 67°
2026-04-13 17:42 27.99725 -16.70785 2120 ft 170 kts 67°
2026-04-13 17:42 28.00137 -16.69605 2120 ft 151 kts 61°
2026-04-13 17:42 28.00495 -16.68573 2005 ft 133 kts 60°
2026-04-13 17:43 28.00831 -16.67612 1854 ft 129 kts 61°
2026-04-13 17:43 28.01159 -16.66676 1699 ft 127 kts 61°
2026-04-13 17:43 28.01493 -16.65724 1524 ft 130 kts 62°
2026-04-13 17:43 28.01823 -16.64778 1354 ft 127 kts 64°
2026-04-13 17:44 28.02148 -16.63847 1188 ft 128 kts 65°
2026-04-13 17:44 28.02489 -16.62881 1024 ft 131 kts 65°
2026-04-13 17:44 28.02819 -16.61930 826 ft 127 kts 67°
2026-04-13 17:44 28.03146 -16.60985 668 ft 127 kts 68°
2026-04-13 17:45 28.03486 -16.60015 510 ft 133 kts 68°
2026-04-13 17:45 28.03813 -16.59070 323 ft 130 kts 68°
2026-04-13 17:45 28.04141 -16.58130 218 ft 118 kts 66°
2026-04-13 17:45 28.04394 -16.57406 206 ft 70 kts 68°
2026-04-13 17:46 28.04511 -16.57085 208 ft 31 kts 60°
2026-04-13 17:46 28.04625 -16.56918 212 ft 22 kts 49°
2026-04-13 17:46 28.04712 -16.56809 218 ft 11 kts 43°
2026-04-13 17:46 28.04762 -16.56812 219 ft 7 kts 320°
2026-04-13 17:47 28.04773 -16.56861 219 ft 8 kts 262°
2026-04-13 17:47 28.04754 -16.56922 220 ft 8 kts 249°
2026-04-13 17:47 28.04735 -16.56977 223 ft 7 kts 249°
2026-04-13 17:47 28.04719 -16.57025 224 ft 7 kts 248°
2026-04-13 17:48 28.04690 -16.57106 222 ft 10 kts 250°
2026-04-13 17:48 28.04725 -16.57161 223 ft 9 kts 336°
2026-04-13 17:48 28.04770 -16.57190 224 ft 7 kts 313°
2026-04-13 17:48 28.04771 -16.57254 225 ft 10 kts 247°
2026-04-13 17:49 28.04741 -16.57344 225 ft 13 kts 250°
2026-04-13 17:49 28.04709 -16.57437 225 ft 10 kts 248°
2026-04-13 17:49 28.04681 -16.57506 224 ft 10 kts 245°
2026-04-13 17:49 28.04657 -16.57576 224 ft 9 kts 248°
2026-04-13 17:50 28.04645 -16.57635 225 ft 6 kts 288°
2026-04-13 17:50 28.04670 -16.57662 225 ft 4 kts 329°
2026-04-13 17:50 28.04690 -16.57672 226 ft 3 kts 337°
2026-04-13 17:50 28.04705 -16.57679 226 ft 2 kts 338°
2026-04-13 17:51 28.04710 -16.57681 226 ft 0 kts 338°